Wetterdaten: Montag, 22.05.2006
Datum Zeit Temp. I. Temp. A. Feuchte A. Luftdruck Regen Wind
22.05.2006 00:00 21,3 C 11,7 C 82 % 1006 hPa 0,0 l/m 0,2 km/h (0 Bft)
22.05.2006 00:03 21,3 C 11,7 C 82 % 1007 hPa 0,0 l/m 0,0 km/h (0 Bft)
22.05.2006 00:06 21,3 C 11,6 C 82 % 1007 hPa 0,0 l/m 0,1 km/h (0 Bft)
22.05.2006 00:09 21,3 C 11,6 C 82 % 1006 hPa 0,0 l/m 0,0 km/h (0 Bft)
22.05.2006 00:12 21,3 C 11,6 C 82 % 1006 hPa 0,0 l/m 0,0 km/h (0 Bft)
22.05.2006 00:15 21,2 C 11,5 C 82 % 1007 hPa 0,0 l/m 0,0 km/h (0 Bft)
22.05.2006 00:18 21,3 C 11,5 C 82 % 1007 hPa 0,0 l/m 0,0 km/h (0 Bft)
22.05.2006 00:21 21,2 C 11,5 C 82 % 1006 hPa 0,0 l/m 0,0 km/h (0 Bft)
22.05.2006 00:24 21,2 C 11,3 C 82 % 1006 hPa 0,0 l/m 0,0 km/h (0 Bft)
22.05.2006 00:27 21,2 C 11,3 C 83 % 1006 hPa 0,0 l/m 0,1 km/h (0 Bft)
22.05.2006 00:30 21,2 C 11,2 C 83 % 1006 hPa 0,0 l/m 0,0 km/h (0 Bft)
22.05.2006 00:33 21,2 C 11,2 C 83 % 1006 hPa 0,0 l/m 0,0 km/h (0 Bft)
22.05.2006 00:36 21,2 C 11,3 C 83 % 1006 hPa 0,0 l/m 0,0 km/h (0 Bft)
22.05.2006 00:39 21,2 C 11,3 C 83 % 1006 hPa 0,0 l/m 0,0 km/h (0 Bft)
22.05.2006 00:42 21,2 C 11,4 C 83 % 1006 hPa 0,0 l/m 0,1 km/h (0 Bft)
22.05.2006 00:45 21,2 C 11,4 C 83 % 1006 hPa 0,0 l/m 2,5 km/h (1 Bft)
22.05.2006 00:48 21,2 C 11,4 C 83 % 1006 hPa 0,0 l/m 0,1 km/h (0 Bft)
22.05.2006 00:51 21,2 C 11,4 C 83 % 1006 hPa 0,0 l/m 0,1 km/h (0 Bft)
22.05.2006 00:54 21,2 C 11,4 C 83 % 1006 hPa 0,0 l/m 0,0 km/h (0 Bft)
22.05.2006 00:57 21,2 C 11,3 C 83 % 1006 hPa 0,0 l/m 1,3 km/h (1 Bft)
22.05.2006 01:00 21,2 C 11,2 C 83 % 1006 hPa 0,0 l/m 0,4 km/h (0 Bft)
22.05.2006 01:03 21,2 C 11,2 C 83 % 1006 hPa 0,0 l/m 0,1 km/h (0 Bft)
22.05.2006 01:06 21,2 C 11,2 C 83 % 1006 hPa 0,0 l/m 0,0 km/h (0 Bft)
22.05.2006 01:09 21,2 C 11,2 C 83 % 1006 hPa 0,0 l/m 0,0 km/h (0 Bft)
22.05.2006 01:12 21,2 C 11,1 C 83 % 1006 hPa 0,0 l/m 0,2 km/h (0 Bft)
22.05.2006 01:15 21,2 C 11,1 C 83 % 1006 hPa 0,0 l/m 0,0 km/h (0 Bft)
22.05.2006 01:18 21,2 C 11,0 C 83 % 1006 hPa 0,0 l/m 0,0 km/h (0 Bft)
22.05.2006 01:21 21,2 C 11,0 C 83 % 1006 hPa 0,0 l/m 0,0 km/h (0 Bft)
22.05.2006 01:24 21,2 C 11,1 C 83 % 1006 hPa 0,0 l/m 0,3 km/h (0 Bft)
22.05.2006 01:27 21,2 C 11,0 C 83 % 1006 hPa 0,0 l/m 0,1 km/h (0 Bft)
22.05.2006 01:30 21,2 C 11,0 C 83 % 1006 hPa 0,0 l/m 0,0 km/h (0 Bft)
22.05.2006 01:33 21,2 C 11,0 C 83 % 1006 hPa 0,0 l/m 0,0 km/h (0 Bft)
22.05.2006 01:36 21,2 C 10,9 C 83 % 1006 hPa 0,0 l/m 0,0 km/h (0 Bft)
22.05.2006 01:39 21,2 C 10,9 C 83 % 1006 hPa 0,0 l/m 0,0 km/h (0 Bft)
22.05.2006 01:42 21,2 C 10,9 C 83 % 1006 hPa 0,0 l/m 0,0 km/h (0 Bft)
22.05.2006 01:45 21,2 C 10,8 C 84 % 1006 hPa 0,0 l/m 0,0 km/h (0 Bft)
22.05.2006 01:48 21,1 C 10,8 C 84 % 1006 hPa 0,0 l/m 0,0 km/h (0 Bft)
22.05.2006 01:51 21,2 C 10,7 C 84 % 1006 hPa 0,0 l/m 0,1 km/h (0 Bft)
22.05.2006 01:54 21,2 C 10,7 C 84 % 1006 hPa 0,0 l/m 0,0 km/h (0 Bft)
22.05.2006 01:57 21,1 C 10,7 C 84 % 1006 hPa 0,0 l/m 0,3 km/h (0 Bft)
22.05.2006 02:00 21,1 C 10,7 C 84 % 1006 hPa 0,0 l/m 0,0 km/h (0 Bft)
22.05.2006 02:03 21,2 C 10,6 C 84 % 1006 hPa 0,0 l/m 0,0 km/h (0 Bft)
22.05.2006 02:06 21,1 C 10,6 C 84 % 1006 hPa 0,0 l/m 0,0 km/h (0 Bft)
22.05.2006 02:09 21,1 C 10,5 C 85 % 1006 hPa 0,0 l/m 0,1 km/h (0 Bft)
22.05.2006 02:12 21,1 C 10,5 C 85 % 1006 hPa 0,0 l/m 0,0 km/h (0 Bft)
22.05.2006 02:15 21,2 C 10,4 C 85 % 1006 hPa 0,0 l/m 0,0 km/h (0 Bft)
22.05.2006 02:18 21,1 C 10,4 C 85 % 1006 hPa 0,0 l/m 0,0 km/h (0 Bft)
22.05.2006 02:21 21,1 C 10,4 C 85 % 1006 hPa 0,0 l/m 0,0 km/h (0 Bft)
22.05.2006 02:24 21,1 C 10,4 C 85 % 1006 hPa 0,0 l/m 0,0 km/h (0 Bft)
22.05.2006 02:27 21,1 C 10,4 C 85 % 1006 hPa 0,0 l/m 0,0 km/h (0 Bft)
22.05.2006 02:30 21,1 C 10,4 C 85 % 1006 hPa 0,0 l/m 0,0 km/h (0 Bft)
22.05.2006 02:33 21,1 C 10,4 C 86 % 1006 hPa 0,0 l/m 0,1 km/h (0 Bft)
22.05.2006 02:36 21,1 C 10,3 C 86 % 1006 hPa 0,0 l/m 0,2 km/h (0 Bft)
22.05.2006 02:39 21,1 C 10,3 C 86 % 1006 hPa 0,0 l/m 0,1 km/h (0 Bft)
22.05.2006 02:42 21,1 C 10,3 C 85 % 1006 hPa 0,0 l/m 0,0 km/h (0 Bft)
22.05.2006 02:45 21,1 C 10,3 C 86 % 1006 hPa 0,0 l/m 0,1 km/h (0 Bft)
22.05.2006 02:48 21,1 C 10,2 C 86 % 1006 hPa 0,0 l/m 0,0 km/h (0 Bft)
22.05.2006 02:51 21,1 C 10,2 C 86 % 1006 hPa 0,0 l/m 0,0 km/h (0 Bft)
22.05.2006 02:54 21,1 C 10,1 C 86 % 1006 hPa 0,0 l/m 0,0 km/h (0 Bft)
22.05.2006 02:57 21,1 C 10,0 C 86 % 1006 hPa 0,0 l/m 0,0 km/h (0 Bft)
22.05.2006 03:00 21,1 C 10,0 C 85 % 1006 hPa 0,0 l/m 0,0 km/h (0 Bft)
22.05.2006 03:03 21,1 C 9,9 C 85 % 1006 hPa 0,0 l/m 0,0 km/h (0 Bft)
22.05.2006 03:06 21,0 C 9,5 C 86 % 1006 hPa 0,0 l/m 0,0 km/h (0 Bft)
22.05.2006 03:09 21,0 C 9,5 C 86 % 1006 hPa 0,0 l/m 0,0 km/h (0 Bft)
22.05.2006 03:12 21,0 C 9,3 C 86 % 1006 hPa 0,0 l/m 0,0 km/h (0 Bft)
22.05.2006 03:15 21,0 C 9,2 C 86 % 1006 hPa 0,0 l/m 0,0 km/h (0 Bft)
22.05.2006 03:18 21,0 C 9,2 C 87 % 1006 hPa 0,0 l/m 0,0 km/h (0 Bft)
22.05.2006 03:21 21,0 C 9,2 C 87 % 1006 hPa 0,0 l/m 0,0 km/h (0 Bft)
22.05.2006 03:24 21,0 C 9,2 C 87 % 1006 hPa 0,0 l/m 0,0 km/h (0 Bft)
22.05.2006 03:27 21,0 C 9,2 C 87 % 1006 hPa 0,0 l/m 0,0 km/h (0 Bft)
22.05.2006 03:30 21,0 C 9,2 C 87 % 1006 hPa 0,0 l/m 0,0 km/h (0 Bft)
22.05.2006 03:33 21,0 C 9,2 C 87 % 1006 hPa 0,0 l/m 0,0 km/h (0 Bft)
22.05.2006 03:36 21,0 C 9,2 C 87 % 1006 hPa 0,0 l/m 0,0 km/h (0 Bft)
22.05.2006 03:39 21,0 C 9,2 C 87 % 1006 hPa 0,0 l/m 0,0 km/h (0 Bft)
22.05.2006 03:42 21,0 C 9,2 C 87 % 1006 hPa 0,0 l/m 0,0 km/h (0 Bft)
22.05.2006 03:45 21,0 C 9,2 C 87 % 1006 hPa 0,0 l/m 0,0 km/h (0 Bft)
22.05.2006 03:48 21,0 C 9,2 C 87 % 1006 hPa 0,0 l/m 0,0 km/h (0 Bft)
22.05.2006 03:51 21,0 C 9,2 C 87 % 1006 hPa 0,0 l/m 0,0 km/h (0 Bft)
22.05.2006 03:54 21,0 C 9,2 C 87 % 1006 hPa 0,0 l/m 0,0 km/h (0 Bft)
22.05.2006 03:57 21,0 C 9,1 C 87 % 1006 hPa 0,0 l/m 0,0 km/h (0 Bft)
22.05.2006 04:00 21,0 C 9,1 C 87 % 1006 hPa 0,0 l/m 0,0 km/h (0 Bft)
22.05.2006 04:03 21,0 C 9,1 C 88 % 1006 hPa 0,0 l/m 0,0 km/h (0 Bft)
22.05.2006 04:06 21,0 C 9,0 C 88 % 1006 hPa 0,0 l/m 0,0 km/h (0 Bft)
22.05.2006 04:09 21,0 C 9,1 C 88 % 1006 hPa 0,0 l/m 0,0 km/h (0 Bft)
22.05.2006 04:12 21,0 C 9,1 C 88 % 1006 hPa 0,0 l/m 0,0 km/h (0 Bft)
22.05.2006 04:15 21,0 C 9,1 C 88 % 1006 hPa 0,0 l/m 0,0 km/h (0 Bft)
22.05.2006 04:18 21,0 C 9,0 C 88 % 1006 hPa 0,0 l/m 0,0 km/h (0 Bft)
22.05.2006 04:21 21,0 C 9,1 C 88 % 1006 hPa 0,0 l/m 0,0 km/h (0 Bft)
22.05.2006 04:24 21,0 C 9,0 C 88 % 1006 hPa 0,0 l/m 0,0 km/h (0 Bft)
22.05.2006 04:27 21,0 C 9,0 C 88 % 1006 hPa 0,0 l/m 0,0 km/h (0 Bft)
22.05.2006 04:30 21,0 C 9,0 C 88 % 1006 hPa 0,0 l/m 0,0 km/h (0 Bft)
22.05.2006 04:33 21,0 C 9,0 C 88 % 1006 hPa 0,0 l/m 0,0 km/h (0 Bft)
22.05.2006 04:36 21,0 C 9,0 C 88 % 1005 hPa 0,0 l/m 0,0 km/h (0 Bft)
22.05.2006 04:39 21,0 C 9,0 C 88 % 1005 hPa 0,0 l/m 0,0 km/h (0 Bft)
22.05.2006 04:42 21,0 C 8,9 C 88 % 1005 hPa 0,0 l/m 0,0 km/h (0 Bft)
22.05.2006 04:45 21,0 C 8,8 C 88 % 1005 hPa 0,0 l/m 0,0 km/h (0 Bft)
22.05.2006 04:48 21,0 C 8,8 C 88 % 1005 hPa 0,0 l/m 0,0 km/h (0 Bft)
22.05.2006 04:51 21,0 C 8,8 C 89 % 1005 hPa 0,0 l/m 0,0 km/h (0 Bft)
22.05.2006 04:54 21,0 C 8,8 C 89 % 1005 hPa 0,0 l/m 0,0 km/h (0 Bft)
22.05.2006 04:57 21,0 C 8,7 C 89 % 1005 hPa 0,0 l/m 0,0 km/h (0 Bft)
22.05.2006 05:00 21,0 C 8,7 C 90 % 1005 hPa 0,0 l/m 0,0 km/h (0 Bft)
22.05.2006 05:03 21,0 C 8,6 C 90 % 1005 hPa 0,0 l/m 0,0 km/h (0 Bft)
22.05.2006 05:05 21,0 C 8,6 C 90 % 1005 hPa 0,0 l/m 0,0 km/h (0 Bft)
22.05.2006 05:09 21,0 C 8,7 C 90 % 1005 hPa 0,0 l/m 0,0 km/h (0 Bft)
22.05.2006 05:12 21,0 C 8,7 C 90 % 1005 hPa 0,0 l/m 0,0 km/h (0 Bft)
22.05.2006 05:15 21,0 C 8,8 C 90 % 1005 hPa 0,0 l/m 0,0 km/h (0 Bft)
22.05.2006 05:18 21,0 C 8,8 C 89 % 1005 hPa 0,0 l/m 0,0 km/h (0 Bft)
22.05.2006 05:21 21,0 C 8,8 C 90 % 1005 hPa 0,0 l/m 0,0 km/h (0 Bft)
22.05.2006 05:24 21,0 C 8,8 C 90 % 1005 hPa 0,0 l/m 0,0 km/h (0 Bft)
22.05.2006 05:27 21,0 C 8,8 C 90 % 1005 hPa 0,0 l/m 0,0 km/h (0 Bft)
22.05.2006 05:30 21,2 C 8,8 C 90 % 1005 hPa 0,0 l/m 0,0 km/h (0 Bft)
22.05.2006 05:33 21,0 C 8,8 C 90 % 1005 hPa 0,0 l/m 0,0 km/h (0 Bft)
22.05.2006 05:36 20,6 C 8,8 C 90 % 1005 hPa 0,0 l/m 0,0 km/h (0 Bft)
22.05.2006 05:39 20,6 C 8,8 C 90 % 1005 hPa 0,0 l/m 0,0 km/h (0 Bft)
22.05.2006 05:42 19,9 C 8,8 C 90 % 1005 hPa 0,0 l/m 0,0 km/h (0 Bft)
22.05.2006 05:45 19,6 C 8,9 C 90 % 1006 hPa 0,0 l/m 0,0 km/h (0 Bft)
22.05.2006 05:48 19,4 C 8,9 C 90 % 1006 hPa 0,0 l/m 0,0 km/h (0 Bft)
22.05.2006 05:51 19,2 C 9,0 C 90 % 1006 hPa 0,0 l/m 0,0 km/h (0 Bft)
22.05.2006 05:54 19,0 C 9,0 C 90 % 1006 hPa 0,0 l/m 0,0 km/h (0 Bft)
22.05.2006 05:57 18,8 C 9,2 C 90 % 1006 hPa 0,0 l/m 0,0 km/h (0 Bft)
22.05.2006 06:00 18,8 C 9,2 C 90 % 1005 hPa 0,0 l/m 0,0 km/h (0 Bft)
22.05.2006 06:03 18,7 C 9,2 C 90 % 1005 hPa 0,0 l/m 0,0 km/h (0 Bft)
22.05.2006 06:06 18,8 C 9,2 C 90 % 1005 hPa 0,0 l/m 0,0 km/h (0 Bft)
22.05.2006 06:09 19,0 C 9,3 C 90 % 1005 hPa 0,0 l/m 0,0 km/h (0 Bft)
22.05.2006 06:12 19,0 C 9,3 C 90 % 1005 hPa 0,0 l/m 0,0 km/h (0 Bft)
22.05.2006 06:15 19,4 C 9,3 C 90 % 1005 hPa 0,0 l/m 0,0 km/h (0 Bft)
22.05.2006 06:18 19,5 C 9,3 C 90 % 1005 hPa 0,0 l/m 0,0 km/h (0 Bft)
22.05.2006 06:21 19,5 C 9,4 C 90 % 1005 hPa 0,0 l/m 0,0 km/h (0 Bft)
22.05.2006 06:25 19,4 C 9,3 C 90 % 1005 hPa 0,0 l/m 0,0 km/h (0 Bft)
22.05.2006 06:28 19,4 C 9,4 C 90 % 1005 hPa 0,0 l/m 0,0 km/h (0 Bft)
22.05.2006 06:31 19,7 C 9,5 C 90 % 1005 hPa 0,0 l/m 0,0 km/h (0 Bft)
22.05.2006 06:34 20,0 C 9,6 C 90 % 1005 hPa 0,0 l/m 0,0 km/h (0 Bft)
22.05.2006 06:36 20,3 C 9,6 C 90 % 1005 hPa 0,0 l/m 0,0 km/h (0 Bft)
22.05.2006 06:39 20,4 C 9,7 C 90 % 1005 hPa 0,0 l/m 0,0 km/h (0 Bft)
22.05.2006 06:42 20,6 C 9,8 C 89 % 1005 hPa 0,0 l/m 0,0 km/h (0 Bft)
22.05.2006 06:45 20,8 C 10,0 C 89 % 1005 hPa 0,0 l/m 0,0 km/h (0 Bft)
22.05.2006 06:48 20,9 C 10,1 C 89 % 1005 hPa 0,0 l/m 0,0 km/h (0 Bft)
22.05.2006 06:51 21,0 C 10,2 C 89 % 1005 hPa 0,0 l/m 0,0 km/h (0 Bft)
22.05.2006 06:54 20,8 C 10,3 C 89 % 1005 hPa 0,0 l/m 0,0 km/h (0 Bft)
22.05.2006 06:57 20,6 C 10,4 C 89 % 1005 hPa 0,0 l/m 0,0 km/h (0 Bft)
22.05.2006 07:00 20,5 C 10,5 C 89 % 1005 hPa 0,0 l/m 0,0 km/h (0 Bft)
22.05.2006 07:03 20,5 C 10,8 C 88 % 1005 hPa 0,0 l/m 0,0 km/h (0 Bft)
22.05.2006 07:06 20,5 C 11,0 C 88 % 1005 hPa 0,0 l/m 0,0 km/h (0 Bft)
22.05.2006 07:09 20,5 C 11,0 C 88 % 1005 hPa 0,0 l/m 0,0 km/h (0 Bft)
22.05.2006 07:12 20,6 C 11,0 C 88 % 1005 hPa 0,0 l/m 0,0 km/h (0 Bft)
22.05.2006 07:15 20,6 C 11,1 C 87 % 1005 hPa 0,0 l/m 0,0 km/h (0 Bft)
22.05.2006 07:18 20,5 C 11,3 C 87 % 1005 hPa 0,0 l/m 0,0 km/h (0 Bft)
22.05.2006 07:21 20,5 C 11,4 C 87 % 1005 hPa 0,0 l/m 0,1 km/h (0 Bft)
22.05.2006 07:24 20,5 C 11,4 C 87 % 1005 hPa 0,0 l/m 0,0 km/h (0 Bft)
22.05.2006 07:27 20,5 C 11,6 C 86 % 1005 hPa 0,0 l/m 0,7 km/h (0 Bft)
22.05.2006 07:30 20,5 C 11,6 C 86 % 1005 hPa 0,0 l/m 0,9 km/h (0 Bft)
22.05.2006 07:33 20,6 C 12,0 C 85 % 1005 hPa 0,0 l/m 1,1 km/h (1 Bft)
22.05.2006 07:36 20,5 C 12,1 C 84 % 1005 hPa 0,0 l/m 1,1 km/h (1 Bft)
22.05.2006 07:39 20,6 C 12,2 C 85 % 1005 hPa 0,0 l/m 0,9 km/h (0 Bft)
22.05.2006 07:42 20,5 C 12,4 C 85 % 1005 hPa 0,0 l/m 0,4 km/h (0 Bft)
22.05.2006 07:45 20,5 C 12,4 C 84 % 1005 hPa 0,0 l/m 0,0 km/h (0 Bft)
22.05.2006 07:48 20,5 C 12,4 C 84 % 1005 hPa 0,0 l/m 0,1 km/h (0 Bft)
22.05.2006 07:51 20,5 C 12,6 C 83 % 1005 hPa 0,0 l/m 0,1 km/h (0 Bft)
22.05.2006 07:54 20,5 C 12,8 C 83 % 1005 hPa 0,0 l/m 0,3 km/h (0 Bft)
22.05.2006 07:57 20,5 C 12,9 C 82 % 1005 hPa 0,0 l/m 5,9 km/h (2 Bft)
22.05.2006 08:00 20,5 C 13,0 C 81 % 1005 hPa 0,0 l/m 5,5 km/h (1 Bft)
22.05.2006 08:03 20,5 C 13,1 C 81 % 1005 hPa 0,0 l/m 7,1 km/h (2 Bft)
22.05.2006 08:06 20,5 C 13,3 C 81 % 1005 hPa 0,0 l/m 6,5 km/h (2 Bft)
22.05.2006 08:09 20,4 C 13,4 C 81 % 1005 hPa 0,0 l/m 6,5 km/h (2 Bft)
22.05.2006 08:12 20,4 C 13,5 C 79 % 1005 hPa 0,0 l/m 7,1 km/h (2 Bft)
22.05.2006 08:15 20,4 C 13,6 C 78 % 1005 hPa 0,0 l/m 12,8 km/h (3 Bft)
22.05.2006 08:18 20,4 C 13,7 C 78 % 1005 hPa 0,0 l/m 7,7 km/h (2 Bft)
22.05.2006 08:21 20,5 C 13,8 C 77 % 1005 hPa 0,0 l/m 6,1 km/h (2 Bft)
22.05.2006 08:24 20,4 C 13,9 C 76 % 1005 hPa 0,0 l/m 7,6 km/h (2 Bft)
22.05.2006 08:27 20,5 C 14,0 C 77 % 1005 hPa 0,0 l/m 7,6 km/h (2 Bft)
22.05.2006 08:30 20,4 C 14,1 C 77 % 1005 hPa 0,0 l/m 2,8 km/h (1 Bft)
22.05.2006 08:33 20,4 C 14,2 C 77 % 1005 hPa 0,0 l/m 9,6 km/h (2 Bft)
22.05.2006 08:36 20,4 C 14,3 C 77 % 1005 hPa 0,0 l/m 2,9 km/h (1 Bft)
22.05.2006 08:39 20,4 C 14,3 C 77 % 1005 hPa 0,0 l/m 10,7 km/h (2 Bft)
22.05.2006 08:42 20,4 C 14,6 C 76 % 1005 hPa 0,0 l/m 6,5 km/h (2 Bft)
22.05.2006 08:45 20,3 C 14,7 C 75 % 1005 hPa 0,0 l/m 8,9 km/h (2 Bft)
22.05.2006 08:48 20,3 C 14,9 C 75 % 1005 hPa 0,0 l/m 10,5 km/h (2 Bft)
22.05.2006 08:51 20,3 C 15,0 C 74 % 1005 hPa 0,0 l/m 10,7 km/h (2 Bft)
22.05.2006 08:54 20,3 C 15,0 C 73 % 1005 hPa 0,0 l/m 12,3 km/h (3 Bft)
22.05.2006 08:57 20,4 C 15,1 C 73 % 1005 hPa 0,0 l/m 12,0 km/h (2 Bft)
22.05.2006 09:00 20,4 C 15,2 C 74 % 1005 hPa 0,0 l/m 9,2 km/h (2 Bft)
22.05.2006 09:03 20,4 C 15,4 C 74 % 1005 hPa 0,0 l/m 8,7 km/h (2 Bft)
22.05.2006 09:06 20,4 C 15,6 C 74 % 1005 hPa 0,0 l/m 1,4 km/h (1 Bft)
22.05.2006 09:09 20,4 C 15,7 C 72 % 1004 hPa 0,0 l/m 9,3 km/h (2 Bft)
22.05.2006 09:12 20,4 C 15,8 C 72 % 1004 hPa 0,0 l/m 9,0 km/h (2 Bft)
22.05.2006 09:15 20,4 C 15,9 C 71 % 1005 hPa 0,0 l/m 8,3 km/h (2 Bft)
22.05.2006 09:18 20,5 C 16,0 C 71 % 1005 hPa 0,0 l/m 8,7 km/h (2 Bft)
22.05.2006 09:21 20,4 C 16,1 C 71 % 1005 hPa 0,0 l/m 5,7 km/h (1 Bft)
22.05.2006 09:24 20,4 C 16,3 C 69 % 1005 hPa 0,0 l/m 11,3 km/h (2 Bft)
22.05.2006 09:27 20,4 C 16,4 C 70 % 1005 hPa 0,0 l/m 10,9 km/h (2 Bft)
22.05.2006 09:30 20,4 C 16,6 C 67 % 1005 hPa 0,0 l/m 12,3 km/h (3 Bft)
22.05.2006 09:33 20,5 C 16,6 C 68 % 1005 hPa 0,0 l/m 9,8 km/h (2 Bft)
22.05.2006 09:36 20,5 C 16,7 C 67 % 1004 hPa 0,0 l/m 7,9 km/h (2 Bft)
22.05.2006 09:39 20,5 C 16,7 C 67 % 1004 hPa 0,0 l/m 10,7 km/h (2 Bft)
22.05.2006 09:42 20,4 C 16,8 C 68 % 1004 hPa 0,0 l/m 8,8 km/h (2 Bft)
22.05.2006 09:45 20,4 C 16,8 C 69 % 1004 hPa 0,0 l/m 5,9 km/h (2 Bft)
22.05.2006 09:48 20,5 C 16,9 C 70 % 1004 hPa 0,0 l/m 9,1 km/h (2 Bft)
22.05.2006 09:51 20,5 C 17,0 C 67 % 1004 hPa 0,0 l/m 10,7 km/h (2 Bft)
22.05.2006 09:54 20,5 C 17,0 C 67 % 1004 hPa 0,0 l/m 11,6 km/h (2 Bft)
22.05.2006 09:57 20,5 C 16,9 C 65 % 1004 hPa 0,0 l/m 3,7 km/h (1 Bft)
22.05.2006 10:00 20,5 C 17,1 C 68 % 1004 hPa 0,0 l/m 11,1 km/h (2 Bft)
22.05.2006 10:03 20,5 C 17,1 C 68 % 1004 hPa 0,0 l/m 2,8 km/h (1 Bft)
22.05.2006 10:06 20,6 C 17,2 C 68 % 1004 hPa 0,0 l/m 2,8 km/h (1 Bft)
22.05.2006 10:09 20,5 C 17,3 C 67 % 1004 hPa 0,0 l/m 9,8 km/h (2 Bft)
22.05.2006 10:12 20,6 C 17,3 C 66 % 1004 hPa 0,0 l/m 13,6 km/h (3 Bft)
22.05.2006 10:15 20,5 C 17,3 C 67 % 1004 hPa 0,0 l/m 15,0 km/h (3 Bft)
22.05.2006 10:18 20,5 C 17,4 C 68 % 1004 hPa 0,0 l/m 8,4 km/h (2 Bft)
22.05.2006 10:21 20,6 C 17,6 C 68 % 1004 hPa 0,0 l/m 11,8 km/h (2 Bft)
22.05.2006 10:24 20,6 C 17,7 C 67 % 1004 hPa 0,0 l/m 10,6 km/h (2 Bft)
22.05.2006 10:27 20,6 C 17,8 C 68 % 1004 hPa 0,0 l/m 4,7 km/h (1 Bft)
22.05.2006 10:30 20,6 C 17,9 C 66 % 1004 hPa 0,0 l/m 14,9 km/h (3 Bft)
22.05.2006 10:33 20,6 C 17,9 C 66 % 1004 hPa 0,0 l/m 10,8 km/h (2 Bft)
22.05.2006 10:36 20,6 C 17,8 C 66 % 1004 hPa 0,0 l/m 11,6 km/h (2 Bft)
22.05.2006 10:39 20,5 C 17,9 C 68 % 1004 hPa 0,0 l/m 12,0 km/h (2 Bft)
22.05.2006 10:42 20,6 C 18,0 C 67 % 1004 hPa 0,0 l/m 10,2 km/h (2 Bft)
22.05.2006 10:45 20,6 C 18,2 C 68 % 1004 hPa 0,0 l/m 5,7 km/h (1 Bft)
22.05.2006 10:48 20,6 C 18,4 C 67 % 1004 hPa 0,0 l/m 6,9 km/h (2 Bft)
22.05.2006 10:51 20,6 C 18,6 C 66 % 1004 hPa 0,0 l/m 11,2 km/h (2 Bft)
22.05.2006 10:54 20,5 C 18,6 C 66 % 1004 hPa 0,0 l/m 10,0 km/h (2 Bft)
22.05.2006 10:57 20,6 C 19,0 C 65 % 1004 hPa 0,0 l/m 13,0 km/h (3 Bft)
22.05.2006 11:00 20,6 C 19,0 C 67 % 1003 hPa 0,0 l/m 5,4 km/h (1 Bft)
22.05.2006 11:03 20,6 C 19,0 C 67 % 1003 hPa 0,0 l/m 8,3 km/h (2 Bft)
22.05.2006 11:06 20,6 C 19,3 C 64 % 1003 hPa 0,0 l/m 16,3 km/h (3 Bft)
22.05.2006 11:09 20,6 C 19,3 C 65 % 1003 hPa 0,0 l/m 15,5 km/h (3 Bft)
22.05.2006 11:12 20,6 C 19,4 C 65 % 1003 hPa 0,0 l/m 9,7 km/h (2 Bft)
22.05.2006 11:15 20,6 C 19,5 C 65 % 1003 hPa 0,0 l/m 12,8 km/h (3 Bft)
22.05.2006 11:18 20,6 C 19,6 C 67 % 1003 hPa 0,0 l/m 11,5 km/h (2 Bft)
22.05.2006 11:21 20,6 C 19,7 C 66 % 1003 hPa 0,0 l/m 9,8 km/h (2 Bft)
22.05.2006 11:24 20,6 C 19,8 C 65 % 1003 hPa 0,0 l/m 13,2 km/h (3 Bft)
22.05.2006 11:27 20,6 C 19,9 C 65 % 1003 hPa 0,0 l/m 12,6 km/h (3 Bft)
22.05.2006 11:30 20,6 C 19,9 C 66 % 1003 hPa 0,0 l/m 15,3 km/h (3 Bft)
22.05.2006 11:33 20,6 C 20,0 C 63 % 1003 hPa 0,0 l/m 13,4 km/h (3 Bft)
22.05.2006 11:36 20,6 C 20,0 C 64 % 1003 hPa 0,0 l/m 12,1 km/h (2 Bft)
22.05.2006 11:39 20,6 C 20,1 C 65 % 1003 hPa 0,0 l/m 10,3 km/h (2 Bft)
22.05.2006 11:42 20,7 C 20,2 C 63 % 1003 hPa 0,0 l/m 9,7 km/h (2 Bft)
22.05.2006 11:45 20,6 C 20,2 C 65 % 1003 hPa 0,0 l/m 11,5 km/h (2 Bft)
22.05.2006 11:48 20,6 C 20,3 C 65 % 1003 hPa 0,0 l/m 10,7 km/h (2 Bft)
22.05.2006 11:51 20,6 C 20,3 C 65 % 1002 hPa 0,0 l/m 11,6 km/h (2 Bft)
22.05.2006 11:54 20,6 C 20,5 C 66 % 1002 hPa 0,0 l/m 8,9 km/h (2 Bft)
22.05.2006 11:57 20,7 C 20,7 C 64 % 1002 hPa 0,0 l/m 11,1 km/h (2 Bft)
22.05.2006 12:00 20,6 C 20,7 C 63 % 1002 hPa 0,0 l/m 12,2 km/h (2 Bft)
22.05.2006 12:03 20,7 C 20,8 C 63 % 1002 hPa 0,0 l/m 13,6 km/h (3 Bft)
22.05.2006 12:06 20,7 C 20,8 C 63 % 1002 hPa 0,0 l/m 12,3 km/h (3 Bft)
22.05.2006 12:09 20,7 C 20,9 C 63 % 1002 hPa 0,0 l/m 10,0 km/h (2 Bft)
22.05.2006 12:12 20,8 C 21,0 C 64 % 1002 hPa 0,0 l/m 5,7 km/h (1 Bft)
22.05.2006 12:15 20,8 C 21,2 C 62 % 1002 hPa 0,0 l/m 7,7 km/h (2 Bft)
22.05.2006 12:18 20,8 C 21,2 C 62 % 1002 hPa 0,0 l/m 12,5 km/h (3 Bft)
22.05.2006 12:21 20,8 C 21,2 C 63 % 1002 hPa 0,0 l/m 2,9 km/h (1 Bft)
22.05.2006 12:24 20,8 C 21,2 C 61 % 1002 hPa 0,0 l/m 13,9 km/h (3 Bft)
22.05.2006 12:27 20,8 C 21,0 C 61 % 1002 hPa 0,0 l/m 13,1 km/h (3 Bft)
22.05.2006 12:30 20,9 C 20,9 C 62 % 1002 hPa 0,0 l/m 13,1 km/h (3 Bft)
22.05.2006 12:33 20,9 C 20,9 C 64 % 1002 hPa 0,0 l/m 13,3 km/h (3 Bft)
22.05.2006 12:36 20,9 C 21,1 C 64 % 1002 hPa 0,0 l/m 6,6 km/h (2 Bft)
22.05.2006 12:39 20,9 C 21,4 C 64 % 1002 hPa 0,0 l/m 6,6 km/h (2 Bft)
22.05.2006 12:42 21,0 C 21,6 C 62 % 1002 hPa 0,0 l/m 11,8 km/h (2 Bft)
22.05.2006 12:45 21,0 C 21,7 C 62 % 1002 hPa 0,0 l/m 13,4 km/h (3 Bft)
22.05.2006 12:48 20,9 C 21,8 C 61 % 1002 hPa 0,0 l/m 10,8 km/h (2 Bft)
22.05.2006 12:51 21,0 C 21,8 C 61 % 1002 hPa 0,0 l/m 13,3 km/h (3 Bft)
22.05.2006 12:54 21,0 C 21,9 C 62 % 1002 hPa 0,0 l/m 8,4 km/h (2 Bft)
22.05.2006 12:57 21,0 C 22,0 C 62 % 1002 hPa 0,0 l/m 10,7 km/h (2 Bft)
22.05.2006 13:00 20,9 C 22,2 C 63 % 1002 hPa 0,0 l/m 11,0 km/h (2 Bft)
22.05.2006 13:04 20,9 C 22,2 C 63 % 1002 hPa 0,0 l/m 10,2 km/h (2 Bft)
22.05.2006 13:07 20,9 C 22,3 C 61 % 1001 hPa 0,0 l/m 14,2 km/h (3 Bft)
22.05.2006 13:10 20,9 C 22,4 C 60 % 1001 hPa 0,0 l/m 15,1 km/h (3 Bft)
22.05.2006 13:12 20,9 C 22,5 C 58 % 1001 hPa 0,0 l/m 16,4 km/h (3 Bft)
22.05.2006 13:15 20,9 C 22,5 C 58 % 1001 hPa 0,0 l/m 16,9 km/h (3 Bft)
22.05.2006 13:18 20,8 C 22,5 C 58 % 1001 hPa 0,0 l/m 17,5 km/h (3 Bft)
22.05.2006 13:21 20,9 C 22,6 C 57 % 1001 hPa 0,0 l/m 14,6 km/h (3 Bft)
22.05.2006 13:24 20,8 C 22,6 C 56 % 1001 hPa 0,0 l/m 13,5 km/h (3 Bft)
22.05.2006 13:27 20,9 C 22,6 C 56 % 1001 hPa 0,0 l/m 15,4 km/h (3 Bft)
22.05.2006 13:30 20,9 C 22,6 C 56 % 1001 hPa 0,0 l/m 16,2 km/h (3 Bft)
22.05.2006 13:33 20,9 C 22,6 C 56 % 1001 hPa 0,0 l/m 10,3 km/h (2 Bft)
22.05.2006 13:36 20,9 C 23,0 C 53 % 1001 hPa 0,0 l/m 16,0 km/h (3 Bft)
22.05.2006 13:39 20,8 C 23,2 C 59 % 1001 hPa 0,0 l/m 13,8 km/h (3 Bft)
22.05.2006 13:42 20,8 C 23,2 C 58 % 1001 hPa 0,0 l/m 8,8 km/h (2 Bft)
22.05.2006 13:45 20,8 C 23,0 C 57 % 1001 hPa 0,0 l/m 6,8 km/h (2 Bft)
22.05.2006 13:48 20,9 C 22,9 C 56 % 1001 hPa 0,0 l/m 16,1 km/h (3 Bft)
22.05.2006 13:51 20,9 C 22,8 C 57 % 1001 hPa 0,0 l/m 15,6 km/h (3 Bft)
22.05.2006 13:54 20,9 C 22,7 C 60 % 1001 hPa 0,0 l/m 11,5 km/h (2 Bft)
22.05.2006 13:57 20,9 C 22,8 C 61 % 1001 hPa 0,0 l/m 11,0 km/h (2 Bft)
22.05.2006 14:00 20,9 C 22,9 C 60 % 1001 hPa 0,0 l/m 11,0 km/h (2 Bft)
22.05.2006 14:03 20,9 C 23,1 C 58 % 1001 hPa 0,0 l/m 12,0 km/h (2 Bft)
22.05.2006 14:06 21,0 C 23,2 C 57 % 1001 hPa 0,0 l/m 12,9 km/h (3 Bft)
22.05.2006 14:09 21,0 C 23,2 C 57 % 1001 hPa 0,0 l/m 11,4 km/h (2 Bft)
22.05.2006 14:12 21,0 C 23,3 C 57 % 1001 hPa 0,0 l/m 14,3 km/h (3 Bft)
22.05.2006 14:15 21,0 C 23,4 C 59 % 1001 hPa 0,0 l/m 11,3 km/h (2 Bft)
22.05.2006 14:18 21,0 C 23,3 C 57 % 1001 hPa 0,0 l/m 9,8 km/h (2 Bft)
22.05.2006 14:21 21,1 C 23,4 C 57 % 1001 hPa 0,0 l/m 7,8 km/h (2 Bft)
22.05.2006 14:24 21,1 C 23,5 C 58 % 1001 hPa 0,0 l/m 14,1 km/h (3 Bft)
22.05.2006 14:27 21,1 C 23,5 C 57 % 1001 hPa 0,0 l/m 8,5 km/h (2 Bft)
22.05.2006 14:30 21,1 C 23,5 C 57 % 1001 hPa 0,0 l/m 8,9 km/h (2 Bft)
22.05.2006 14:33 21,0 C 23,7 C 57 % 1001 hPa 0,0 l/m 11,3 km/h (2 Bft)
22.05.2006 14:36 21,0 C 23,7 C 57 % 1001 hPa 0,0 l/m 8,8 km/h (2 Bft)
22.05.2006 14:39 21,0 C 24,0 C 58 % 1000 hPa 0,0 l/m 12,4 km/h (3 Bft)
22.05.2006 14:42 21,0 C 24,1 C 55 % 1000 hPa 0,0 l/m 8,3 km/h (2 Bft)
22.05.2006 14:45 21,1 C 24,2 C 57 % 1000 hPa 0,0 l/m 17,8 km/h (3 Bft)
22.05.2006 14:48 21,1 C 24,1 C 55 % 1000 hPa 0,0 l/m 12,7 km/h (3 Bft)
22.05.2006 14:51 21,1 C 24,1 C 55 % 1000 hPa 0,0 l/m 9,6 km/h (2 Bft)
22.05.2006 14:54 21,1 C 24,0 C 58 % 1000 hPa 0,0 l/m 10,6 km/h (2 Bft)
22.05.2006 14:57 21,2 C 24,0 C 58 % 1000 hPa 0,0 l/m 7,7 km/h (2 Bft)
22.05.2006 15:00 21,1 C 24,0 C 58 % 1000 hPa 0,0 l/m 8,0 km/h (2 Bft)
22.05.2006 15:03 21,2 C 24,1 C 58 % 1000 hPa 0,0 l/m 14,3 km/h (3 Bft)
22.05.2006 15:06 21,1 C 24,3 C 59 % 1000 hPa 0,0 l/m 10,0 km/h (2 Bft)
22.05.2006 15:09 21,1 C 24,4 C 57 % 1000 hPa 0,0 l/m 11,6 km/h (2 Bft)
22.05.2006 15:12 21,1 C 24,3 C 58 % 1000 hPa 0,0 l/m 10,5 km/h (2 Bft)
22.05.2006 15:15 21,1 C 24,3 C 58 % 1000 hPa 0,0 l/m 10,5 km/h (2 Bft)
22.05.2006 15:18 21,1 C 24,0 C 57 % 1000 hPa 0,0 l/m 9,8 km/h (2 Bft)
22.05.2006 15:21 21,1 C 24,0 C 57 % 1000 hPa 0,0 l/m 10,9 km/h (2 Bft)
22.05.2006 15:24 21,1 C 24,0 C 58 % 1000 hPa 0,0 l/m 8,8 km/h (2 Bft)
22.05.2006 15:27 21,1 C 24,0 C 58 % 1000 hPa 0,0 l/m 10,7 km/h (2 Bft)
22.05.2006 15:30 21,1 C 24,1 C 58 % 1000 hPa 0,0 l/m 11,6 km/h (2 Bft)
22.05.2006 15:33 21,1 C 24,1 C 58 % 1000 hPa 0,0 l/m 15,5 km/h (3 Bft)
22.05.2006 15:36 21,1 C 24,2 C 58 % 1000 hPa 0,0 l/m 14,6 km/h (3 Bft)
22.05.2006 15:39 21,1 C 24,2 C 58 % 1000 hPa 0,0 l/m 9,4 km/h (2 Bft)
22.05.2006 15:42 21,1 C 24,3 C 57 % 1000 hPa 0,0 l/m 10,0 km/h (2 Bft)
22.05.2006 15:45 21,1 C 24,3 C 58 % 1000 hPa 0,0 l/m 11,6 km/h (2 Bft)
22.05.2006 15:48 21,1 C 24,3 C 58 % 1000 hPa 0,0 l/m 9,2 km/h (2 Bft)
22.05.2006 15:51 21,1 C 24,4 C 58 % 1000 hPa 0,0 l/m 8,9 km/h (2 Bft)
22.05.2006 15:54 21,1 C 24,5 C 57 % 1000 hPa 0,0 l/m 1,6 km/h (1 Bft)
22.05.2006 15:57 21,1 C 24,6 C 57 % 1000 hPa 0,0 l/m 12,8 km/h (3 Bft)
22.05.2006 16:00 21,1 C 24,6 C 56 % 1000 hPa 0,0 l/m 12,0 km/h (2 Bft)
22.05.2006 16:03 21,2 C 24,6 C 57 % 1000 hPa 0,0 l/m 9,9 km/h (2 Bft)
22.05.2006 16:06 21,2 C 24,6 C 56 % 1000 hPa 0,0 l/m 9,3 km/h (2 Bft)
22.05.2006 16:09 21,2 C 24,6 C 56 % 1000 hPa 0,0 l/m 12,5 km/h (3 Bft)
22.05.2006 16:12 21,2 C 24,5 C 58 % 1000 hPa 0,0 l/m 14,0 km/h (3 Bft)
22.05.2006 16:15 21,2 C 24,5 C 57 % 1000 hPa 0,0 l/m 10,1 km/h (2 Bft)
22.05.2006 16:18 21,2 C 24,5 C 57 % 1000 hPa 0,0 l/m 10,6 km/h (2 Bft)
22.05.2006 16:21 21,2 C 24,5 C 57 % 1000 hPa 0,0 l/m 11,6 km/h (2 Bft)
22.05.2006 16:24 21,2 C 24,5 C 57 % 1000 hPa 0,0 l/m 11,6 km/h (2 Bft)
22.05.2006 16:27 21,2 C 24,2 C 57 % 1000 hPa 0,0 l/m 10,2 km/h (2 Bft)
22.05.2006 16:30 21,2 C 24,0 C 58 % 1000 hPa 0,0 l/m 5,9 km/h (2 Bft)
22.05.2006 16:33 21,2 C 24,2 C 59 % 999 hPa 0,0 l/m 10,1 km/h (2 Bft)
22.05.2006 16:36 21,2 C 24,4 C 58 % 999 hPa 0,0 l/m 4,0 km/h (1 Bft)
22.05.2006 16:39 21,2 C 24,5 C 58 % 999 hPa 0,0 l/m 1,6 km/h (1 Bft)
22.05.2006 16:42 21,2 C 24,5 C 58 % 999 hPa 0,0 l/m 1,6 km/h (1 Bft)
22.05.2006 16:45 21,2 C 24,6 C 58 % 999 hPa 0,0 l/m 7,2 km/h (2 Bft)
22.05.2006 16:48 21,2 C 24,6 C 58 % 999 hPa 0,0 l/m 9,6 km/h (2 Bft)
22.05.2006 16:51 21,2 C 24,6 C 57 % 999 hPa 0,0 l/m 11,3 km/h (2 Bft)
22.05.2006 16:54 21,2 C 24,6 C 57 % 999 hPa 0,0 l/m 12,0 km/h (2 Bft)
22.05.2006 16:57 21,2 C 24,6 C 57 % 999 hPa 0,0 l/m 13,0 km/h (3 Bft)
22.05.2006 17:00 21,2 C 24,6 C 56 % 999 hPa 0,0 l/m 11,7 km/h (2 Bft)
22.05.2006 17:03 21,2 C 24,5 C 56 % 999 hPa 0,0 l/m 16,7 km/h (3 Bft)
22.05.2006 17:06 21,2 C 24,5 C 57 % 999 hPa 0,0 l/m 10,6 km/h (2 Bft)
22.05.2006 17:09 21,2 C 24,5 C 56 % 999 hPa 0,0 l/m 9,1 km/h (2 Bft)
22.05.2006 17:12 21,3 C 24,5 C 55 % 999 hPa 0,0 l/m 16,7 km/h (3 Bft)
22.05.2006 17:15 21,3 C 24,4 C 56 % 999 hPa 0,0 l/m 10,1 km/h (2 Bft)
22.05.2006 17:18 21,3 C 24,4 C 57 % 999 hPa 0,0 l/m 9,2 km/h (2 Bft)
22.05.2006 17:21 21,3 C 24,4 C 57 % 999 hPa 0,0 l/m 8,0 km/h (2 Bft)
22.05.2006 17:24 21,3 C 24,4 C 57 % 999 hPa 0,0 l/m 8,9 km/h (2 Bft)
22.05.2006 17:27 21,3 C 24,5 C 56 % 999 hPa 0,0 l/m 9,2 km/h (2 Bft)
22.05.2006 17:30 21,3 C 24,6 C 57 % 999 hPa 0,0 l/m 8,6 km/h (2 Bft)
22.05.2006 17:33 21,2 C 24,6 C 56 % 999 hPa 0,0 l/m 0,6 km/h (0 Bft)
22.05.2006 17:36 21,2 C 24,5 C 56 % 999 hPa 0,0 l/m 7,5 km/h (2 Bft)
22.05.2006 17:39 21,2 C 24,5 C 56 % 999 hPa 0,0 l/m 10,6 km/h (2 Bft)
22.05.2006 17:42 21,3 C 24,4 C 56 % 999 hPa 0,0 l/m 10,6 km/h (2 Bft)
22.05.2006 17:45 21,2 C 24,4 C 56 % 999 hPa 0,0 l/m 9,0 km/h (2 Bft)
22.05.2006 17:48 21,3 C 24,4 C 56 % 999 hPa 0,0 l/m 9,0 km/h (2 Bft)
22.05.2006 17:51 21,3 C 24,4 C 56 % 999 hPa 0,0 l/m 7,3 km/h (2 Bft)
22.05.2006 17:54 21,4 C 24,3 C 57 % 999 hPa 0,0 l/m 9,9 km/h (2 Bft)
22.05.2006 17:57 21,4 C 24,2 C 58 % 999 hPa 0,0 l/m 11,7 km/h (2 Bft)
22.05.2006 18:00 21,4 C 24,2 C 58 % 999 hPa 0,0 l/m 8,6 km/h (2 Bft)
22.05.2006 18:03 21,4 C 24,2 C 58 % 999 hPa 0,0 l/m 5,5 km/h (1 Bft)
22.05.2006 18:06 21,4 C 24,2 C 58 % 999 hPa 0,0 l/m 9,0 km/h (2 Bft)
22.05.2006 18:09 21,5 C 24,2 C 58 % 999 hPa 0,0 l/m 4,2 km/h (1 Bft)
22.05.2006 18:12 21,5 C 24,2 C 58 % 999 hPa 0,0 l/m 7,5 km/h (2 Bft)
22.05.2006 18:15 21,5 C 24,2 C 58 % 999 hPa 0,0 l/m 8,5 km/h (2 Bft)
22.05.2006 18:18 21,5 C 24,2 C 59 % 999 hPa 0,0 l/m 6,2 km/h (2 Bft)
22.05.2006 18:21 21,4 C 24,2 C 58 % 999 hPa 0,0 l/m 6,4 km/h (2 Bft)
22.05.2006 18:24 21,4 C 24,2 C 59 % 999 hPa 0,0 l/m 2,1 km/h (1 Bft)
22.05.2006 18:27 21,4 C 24,2 C 59 % 999 hPa 0,0 l/m 10,2 km/h (2 Bft)
22.05.2006 18:30 21,4 C 24,4 C 58 % 999 hPa 0,0 l/m 5,9 km/h (2 Bft)
22.05.2006 18:33 21,3 C 24,3 C 58 % 999 hPa 0,0 l/m 10,0 km/h (2 Bft)
22.05.2006 18:36 21,3 C 24,2 C 59 % 999 hPa 0,0 l/m 7,9 km/h (2 Bft)
22.05.2006 18:39 21,3 C 24,1 C 59 % 999 hPa 0,0 l/m 8,7 km/h (2 Bft)
22.05.2006 18:42 21,3 C 24,1 C 59 % 999 hPa 0,0 l/m 7,8 km/h (2 Bft)
22.05.2006 18:45 21,2 C 24,0 C 59 % 998 hPa 0,0 l/m 8,7 km/h (2 Bft)
22.05.2006 18:48 21,2 C 24,0 C 59 % 998 hPa 0,0 l/m 9,6 km/h (2 Bft)
22.05.2006 18:51 21,3 C 23,9 C 59 % 998 hPa 0,0 l/m 9,5 km/h (2 Bft)
22.05.2006 18:54 21,3 C 23,9 C 59 % 998 hPa 0,0 l/m 7,6 km/h (2 Bft)
22.05.2006 18:57 21,3 C 23,6 C 60 % 998 hPa 0,0 l/m 1,8 km/h (1 Bft)
22.05.2006 19:00 21,4 C 23,6 C 60 % 998 hPa 0,0 l/m 9,6 km/h (2 Bft)
22.05.2006 19:03 21,3 C 23,3 C 61 % 998 hPa 0,0 l/m 5,0 km/h (1 Bft)
22.05.2006 19:06 21,4 C 23,2 C 61 % 998 hPa 0,0 l/m 5,1 km/h (1 Bft)
22.05.2006 19:09 21,4 C 23,1 C 62 % 998 hPa 0,0 l/m 4,3 km/h (1 Bft)
22.05.2006 19:12 21,3 C 23,1 C 62 % 998 hPa 0,0 l/m 8,3 km/h (2 Bft)
22.05.2006 19:15 21,4 C 23,0 C 62 % 998 hPa 0,0 l/m 9,0 km/h (2 Bft)
22.05.2006 19:18 21,3 C 23,0 C 62 % 998 hPa 0,0 l/m 7,4 km/h (2 Bft)
22.05.2006 19:21 21,3 C 23,0 C 62 % 998 hPa 0,0 l/m 9,2 km/h (2 Bft)
22.05.2006 19:24 21,3 C 23,0 C 62 % 998 hPa 0,0 l/m 8,9 km/h (2 Bft)
22.05.2006 19:27 21,3 C 23,0 C 63 % 998 hPa 0,0 l/m 10,0 km/h (2 Bft)
22.05.2006 19:30 21,2 C 23,0 C 63 % 998 hPa 0,0 l/m 10,8 km/h (2 Bft)
22.05.2006 19:33 21,2 C 22,9 C 63 % 998 hPa 0,0 l/m 10,8 km/h (2 Bft)
22.05.2006 19:36 21,2 C 22,8 C 63 % 998 hPa 0,0 l/m 5,2 km/h (1 Bft)
22.05.2006 19:39 21,2 C 22,7 C 63 % 998 hPa 0,0 l/m 7,0 km/h (2 Bft)
22.05.2006 19:42 21,2 C 22,6 C 63 % 999 hPa 0,0 l/m 3,7 km/h (1 Bft)
22.05.2006 19:45 21,2 C 22,5 C 64 % 999 hPa 0,0 l/m 1,2 km/h (1 Bft)
22.05.2006 19:48 21,2 C 22,4 C 64 % 999 hPa 0,0 l/m 0,9 km/h (0 Bft)
22.05.2006 19:51 21,2 C 22,3 C 63 % 999 hPa 0,0 l/m 4,3 km/h (1 Bft)
22.05.2006 19:54 21,2 C 22,3 C 63 % 999 hPa 0,0 l/m 4,6 km/h (1 Bft)
22.05.2006 19:57 21,2 C 22,2 C 64 % 999 hPa 0,0 l/m 5,0 km/h (1 Bft)
22.05.2006 20:01 21,2 C 22,1 C 64 % 999 hPa 0,0 l/m 3,3 km/h (1 Bft)
22.05.2006 20:04 21,2 C 22,0 C 64 % 999 hPa 0,0 l/m 2,2 km/h (1 Bft)
22.05.2006 20:07 21,2 C 22,0 C 64 % 999 hPa 0,0 l/m 1,4 km/h (1 Bft)
22.05.2006 20:10 21,2 C 22,0 C 64 % 999 hPa 0,0 l/m 0,6 km/h (0 Bft)
22.05.2006 20:12 21,2 C 22,0 C 64 % 999 hPa 0,0 l/m 0,6 km/h (0 Bft)
22.05.2006 20:15 21,1 C 22,0 C 64 % 999 hPa 0,0 l/m 0,7 km/h (0 Bft)
22.05.2006 20:18 21,2 C 21,7 C 65 % 999 hPa 0,0 l/m 4,2 km/h (1 Bft)
22.05.2006 20:21 21,1 C 21,8 C 65 % 999 hPa 0,0 l/m 0,9 km/h (0 Bft)
22.05.2006 20:24 21,1 C 21,7 C 65 % 999 hPa 0,0 l/m 0,9 km/h (0 Bft)
22.05.2006 20:27 21,2 C 21,7 C 65 % 999 hPa 0,0 l/m 0,1 km/h (0 Bft)
22.05.2006 20:30 21,2 C 21,5 C 65 % 999 hPa 0,0 l/m 0,1 km/h (0 Bft)
22.05.2006 20:33 21,1 C 21,5 C 65 % 999 hPa 0,0 l/m 0,1 km/h (0 Bft)
22.05.2006 20:36 21,1 C 21,4 C 66 % 999 hPa 0,0 l/m 0,3 km/h (0 Bft)
22.05.2006 20:39 21,1 C 21,3 C 66 % 999 hPa 0,0 l/m 0,2 km/h (0 Bft)
22.05.2006 20:42 21,1 C 21,3 C 66 % 999 hPa 0,0 l/m 0,1 km/h (0 Bft)
22.05.2006 20:45 21,1 C 21,3 C 68 % 999 hPa 0,0 l/m 30,5 km/h (5 Bft)
22.05.2006 20:48 21,1 C 20,9 C 65 % 1000 hPa 0,0 l/m 32,9 km/h (5 Bft)
22.05.2006 20:51 21,1 C 20,5 C 66 % 1000 hPa 0,0 l/m 36,4 km/h (5 Bft)
22.05.2006 20:54 21,0 C 20,5 C 66 % 1000 hPa 0,0 l/m 38,2 km/h (5 Bft)
22.05.2006 20:57 21,1 C 19,8 C 68 % 1001 hPa 0,0 l/m 35,9 km/h (5 Bft)
22.05.2006 21:00 21,1 C 19,6 C 70 % 1001 hPa 0,0 l/m 27,7 km/h (4 Bft)
22.05.2006 21:03 21,0 C 19,3 C 71 % 1001 hPa 0,0 l/m 23,4 km/h (4 Bft)
22.05.2006 21:06 21,0 C 19,3 C 71 % 1001 hPa 0,0 l/m 33,1 km/h (5 Bft)
22.05.2006 21:09 21,1 C 18,8 C 72 % 1001 hPa 0,0 l/m 25,5 km/h (4 Bft)
22.05.2006 21:12 21,2 C 18,6 C 73 % 1001 hPa 0,0 l/m 30,6 km/h (5 Bft)
22.05.2006 21:15 21,3 C 18,4 C 75 % 1001 hPa 0,0 l/m 29,0 km/h (5 Bft)
22.05.2006 21:18 21,3 C 18,1 C 76 % 1001 hPa 0,0 l/m 31,2 km/h (5 Bft)
22.05.2006 21:21 21,2 C 18,0 C 77 % 1001 hPa 0,0 l/m 44,7 km/h (6 Bft)
22.05.2006 21:24 21,2 C 17,8 C 77 % 1001 hPa 0,0 l/m 39,1 km/h (6 Bft)
22.05.2006 21:27 21,2 C 17,6 C 78 % 1001 hPa 0,0 l/m 35,4 km/h (5 Bft)
22.05.2006 21:30 21,2 C 17,5 C 78 % 1001 hPa 0,0 l/m 28,0 km/h (4 Bft)
22.05.2006 21:33 21,1 C 17,3 C 79 % 1001 hPa 0,0 l/m 29,9 km/h (5 Bft)
22.05.2006 21:36 21,1 C 17,2 C 80 % 1001 hPa 0,0 l/m 30,6 km/h (5 Bft)
22.05.2006 21:39 21,1 C 17,0 C 80 % 1002 hPa 0,0 l/m 24,1 km/h (4 Bft)
22.05.2006 21:42 21,1 C 17,0 C 80 % 1002 hPa 0,0 l/m 30,7 km/h (5 Bft)
22.05.2006 21:45 21,1 C 16,7 C 80 % 1002 hPa 0,0 l/m 33,0 km/h (5 Bft)
22.05.2006 21:48 21,1 C 16,3 C 78 % 1002 hPa 0,0 l/m 36,2 km/h (5 Bft)
22.05.2006 21:51 21,1 C 16,2 C 78 % 1002 hPa 0,0 l/m 27,3 km/h (4 Bft)
22.05.2006 21:54 21,0 C 16,0 C 77 % 1002 hPa 0,0 l/m 35,8 km/h (5 Bft)
22.05.2006 21:57 21,0 C 15,9 C 77 % 1002 hPa 0,0 l/m 40,2 km/h (6 Bft)
22.05.2006 22:00 21,0 C 15,8 C 77 % 1002 hPa 0,0 l/m 33,3 km/h (5 Bft)
22.05.2006 22:03 21,0 C 15,6 C 76 % 1003 hPa 0,0 l/m 33,0 km/h (5 Bft)
22.05.2006 22:06 21,0 C 15,6 C 75 % 1003 hPa 0,0 l/m 43,8 km/h (6 Bft)
22.05.2006 22:09 21,0 C 15,6 C 75 % 1003 hPa 0,0 l/m 35,9 km/h (5 Bft)
22.05.2006 22:19 21,0 C 15,4 C 74 % 1003 hPa 0,0 l/m 30,2 km/h (5 Bft)
22.05.2006 22:22 21,0 C 15,3 C 73 % 1003 hPa 0,0 l/m 30,2 km/h (5 Bft)
22.05.2006 22:25 21,0 C 15,3 C 73 % 1003 hPa 0,0 l/m 30,2 km/h (5 Bft)
22.05.2006 22:28 21,0 C 15,2 C 74 % 1003 hPa 0,0 l/m 37,7 km/h (5 Bft)
22.05.2006 22:31 21,0 C 15,2 C 74 % 1003 hPa 0,0 l/m 31,5 km/h (5 Bft)
22.05.2006 22:34 21,0 C 15,2 C 74 % 1003 hPa 0,0 l/m 21,9 km/h (4 Bft)
22.05.2006 22:37 21,0 C 15,0 C 73 % 1004 hPa 0,0 l/m 29,6 km/h (5 Bft)
22.05.2006 22:40 21,0 C 15,0 C 72 % 1004 hPa 0,0 l/m 33,5 km/h (5 Bft)
22.05.2006 22:43 21,0 C 15,0 C 72 % 1004 hPa 0,0 l/m 28,0 km/h (4 Bft)
22.05.2006 22:46 21,0 C 15,0 C 72 % 1004 hPa 0,0 l/m 27,6 km/h (4 Bft)
22.05.2006 22:49 21,0 C 15,0 C 71 % 1004 hPa 0,0 l/m 26,4 km/h (4 Bft)
22.05.2006 22:52 21,0 C 15,0 C 72 % 1004 hPa 0,0 l/m 28,8 km/h (4 Bft)
22.05.2006 22:55 21,0 C 14,8 C 72 % 1004 hPa 0,0 l/m 32,2 km/h (5 Bft)
22.05.2006 22:58 21,0 C 14,8 C 72 % 1004 hPa 0,0 l/m 21,1 km/h (4 Bft)
22.05.2006 23:01 21,0 C 14,6 C 73 % 1004 hPa 0,0 l/m 34,0 km/h (5 Bft)
22.05.2006 23:04 21,0 C 14,5 C 73 % 1005 hPa 0,0 l/m 26,0 km/h (4 Bft)
22.05.2006 23:07 21,0 C 14,4 C 73 % 1005 hPa 0,0 l/m 27,6 km/h (4 Bft)
22.05.2006 23:10 21,0 C 14,4 C 73 % 1005 hPa 0,0 l/m 20,9 km/h (4 Bft)
22.05.2006 23:13 21,0 C 14,3 C 74 % 1005 hPa 0,0 l/m 17,1 km/h (3 Bft)
22.05.2006 23:16 21,0 C 14,2 C 73 % 1005 hPa 0,0 l/m 15,7 km/h (3 Bft)
22.05.2006 23:19 21,0 C 14,2 C 73 % 1005 hPa 0,0 l/m 18,5 km/h (3 Bft)
22.05.2006 23:22 21,0 C 14,2 C 73 % 1006 hPa 0,0 l/m 12,3 km/h (3 Bft)
22.05.2006 23:25 20,9 C 14,1 C 74 % 1006 hPa 0,0 l/m 13,8 km/h (3 Bft)
22.05.2006 23:28 20,9 C 14,1 C 73 % 1006 hPa 0,0 l/m 15,7 km/h (3 Bft)
22.05.2006 23:31 20,9 C 14,0 C 74 % 1006 hPa 0,0 l/m 17,6 km/h (3 Bft)
22.05.2006 23:34 20,9 C 14,0 C 73 % 1006 hPa 0,0 l/m 14,3 km/h (3 Bft)
22.05.2006 23:37 20,9 C 14,0 C 73 % 1006 hPa 0,0 l/m 16,0 km/h (3 Bft)
22.05.2006 23:40 20,9 C 13,9 C 74 % 1006 hPa 0,0 l/m 15,1 km/h (3 Bft)
22.05.2006 23:43 20,9 C 13,9 C 74 % 1006 hPa 0,0 l/m 17,2 km/h (3 Bft)
22.05.2006 23:46 20,9 C 13,8 C 74 % 1006 hPa 0,0 l/m 14,6 km/h (3 Bft)
22.05.2006 23:49 20,9 C 13,8 C 74 % 1006 hPa 0,0 l/m 15,8 km/h (3 Bft)
22.05.2006 23:52 20,9 C 13,7 C 74 % 1006 hPa 0,0 l/m 11,7 km/h (2 Bft)
22.05.2006 23:55 20,9 C 13,7 C 74 % 1007 hPa 0,0 l/m 12,6 km/h (3 Bft)
22.05.2006 23:58 20,9 C 13,7 C 74 % 1007 hPa 0,0 l/m 15,3 km/h (3 Bft)
_ Min-Zeit 06:03 05:03 13:36 18:45 - 00:03
Minimum _ 18,7 C 8,6 C 53 % 998 hPa - 0,0 km/h (0 Bft)
_ Max-Zeit 18:09 15:57 05:00 00:03 00:00 21:21
Maximum _ 21,5 C 24,6 C 90 % 1007 hPa 0,0 l/m 44,7 km/h
W-NW (6 Bft)
Durchschnitt _ 20,9 C 16,9 C 72 % 1003 hPa #0,0 l/m 8,6 km/h (2 Bft)